Location: Park Creek Village Mobile Home Park
(38.2885°N, 122.4714°W)
Time: 05:31:01
(UTC+00:00)

GEOS 3 Rocket - Pass Details

Date: 14 December 2019
Orbit: 782 x 837 km, 115.0° (Epoch: 26 January)

Event Time Altitude Azimuth Distance (km) Brightness Sun altitude
Rises 13:47:23 0° 142° (SE) 3,255 7.7 -17.3°
Reaches altitude 10° 13:49:38 10° 141° (SE) 2,333 6.8 -16.9°
Maximum altitude 13:54:41 83° 55° (NE) 798 3.6 -16.0°
Enters shadow 13:59:02 15° 328° (NNW) 2,053 5.3 -15.1°
